Year,Month,Day,Hour,Minute,Value (Times are PST for temperature in C)
2017,05,28,00,00,15.90
2017,05,28,00,01,15.80
2017,05,28,00,02,15.80
2017,05,28,00,03,15.80
2017,05,28,00,04,15.80
2017,05,28,00,05,15.80
2017,05,28,00,06,15.80
2017,05,28,00,07,15.70
2017,05,28,00,08,15.70
2017,05,28,00,09,15.70
2017,05,28,00,10,15.70
2017,05,28,00,11,15.70
2017,05,28,00,12,15.70
2017,05,28,00,13,15.70
2017,05,28,00,14,15.70
2017,05,28,00,15,15.70
2017,05,28,00,16,15.60
2017,05,28,00,17,15.60
2017,05,28,00,18,15.60
2017,05,28,00,19,15.60
2017,05,28,00,20,15.60
2017,05,28,00,21,15.60
2017,05,28,00,22,15.50
2017,05,28,00,23,15.50
2017,05,28,00,24,15.50
2017,05,28,00,25,15.50
2017,05,28,00,26,15.40
2017,05,28,00,27,15.40
2017,05,28,00,28,15.40
2017,05,28,00,29,15.40
2017,05,28,00,30,15.40
2017,05,28,00,31,15.40
2017,05,28,00,32,15.30
2017,05,28,00,33,15.30
2017,05,28,00,34,15.30
2017,05,28,00,35,15.30
2017,05,28,00,36,15.30
2017,05,28,00,37,15.30
2017,05,28,00,38,15.30
2017,05,28,00,39,15.20
2017,05,28,00,40,15.20
2017,05,28,00,41,15.20
2017,05,28,00,42,15.20
2017,05,28,00,43,15.20
2017,05,28,00,44,15.10
2017,05,28,00,45,15.10
2017,05,28,00,46,15.10
2017,05,28,00,47,15.10
2017,05,28,00,48,15.00
2017,05,28,00,49,15.00
2017,05,28,00,50,15.00
2017,05,28,00,51,14.90
2017,05,28,00,52,14.90
2017,05,28,00,53,14.90
2017,05,28,00,54,14.80
2017,05,28,00,55,14.70
2017,05,28,00,56,14.70
2017,05,28,00,57,14.60
2017,05,28,00,58,14.50
2017,05,28,00,59,14.40
2017,05,28,01,00,14.40
2017,05,28,01,01,14.30
2017,05,28,01,02,14.30
2017,05,28,01,03,14.30
2017,05,28,01,04,14.20
2017,05,28,01,05,14.20
2017,05,28,01,06,14.20
2017,05,28,01,07,14.20
2017,05,28,01,08,14.10
2017,05,28,01,09,14.10
2017,05,28,01,10,14.10
2017,05,28,01,11,14.10
2017,05,28,01,12,14.10
2017,05,28,01,13,14.10
2017,05,28,01,14,14.00
2017,05,28,01,15,14.00
2017,05,28,01,16,14.00
2017,05,28,01,17,14.00
2017,05,28,01,18,14.00
2017,05,28,01,19,14.00
2017,05,28,01,20,14.00
2017,05,28,01,21,14.00
2017,05,28,01,22,14.00
2017,05,28,01,23,14.00
2017,05,28,01,24,14.00
2017,05,28,01,25,14.00
2017,05,28,01,26,14.00
2017,05,28,01,27,13.90
2017,05,28,01,28,13.90
2017,05,28,01,29,13.90
2017,05,28,01,30,13.90
2017,05,28,01,31,13.90
2017,05,28,01,32,13.90
2017,05,28,01,33,13.90
2017,05,28,01,34,13.80
2017,05,28,01,35,13.80
2017,05,28,01,36,13.80
2017,05,28,01,37,13.80
2017,05,28,01,38,13.80
2017,05,28,01,39,13.80
2017,05,28,01,40,13.80
2017,05,28,01,41,13.80
2017,05,28,01,42,13.80
2017,05,28,01,43,13.80
2017,05,28,01,44,13.80
2017,05,28,01,45,13.80
2017,05,28,01,46,13.80
2017,05,28,01,47,13.80
2017,05,28,01,48,13.80
2017,05,28,01,49,13.80
2017,05,28,01,50,13.80
2017,05,28,01,51,13.80
2017,05,28,01,52,13.80
2017,05,28,01,53,13.80
2017,05,28,01,54,13.80
2017,05,28,01,55,13.80
2017,05,28,01,56,13.80
2017,05,28,01,57,13.80
2017,05,28,01,58,13.80
2017,05,28,01,59,13.80
2017,05,28,02,00,13.80
2017,05,28,02,01,13.80
2017,05,28,02,02,13.80
2017,05,28,02,03,13.80
2017,05,28,02,04,13.80
2017,05,28,02,05,13.80
2017,05,28,02,06,13.80
2017,05,28,02,07,13.80
2017,05,28,02,08,13.80
2017,05,28,02,09,13.80
2017,05,28,02,10,13.80
2017,05,28,02,11,13.80
2017,05,28,02,12,13.80
2017,05,28,02,13,13.80
2017,05,28,02,14,13.80
2017,05,28,02,15,13.70
2017,05,28,02,16,13.70
2017,05,28,02,17,13.70
2017,05,28,02,18,13.70
2017,05,28,02,19,13.70
2017,05,28,02,20,13.70
2017,05,28,02,21,13.70
2017,05,28,02,22,13.70
2017,05,28,02,23,13.60
2017,05,28,02,24,13.60
2017,05,28,02,25,13.60
2017,05,28,02,26,13.60
2017,05,28,02,27,13.60
2017,05,28,02,28,13.60
2017,05,28,02,29,13.60
2017,05,28,02,30,13.60
2017,05,28,02,31,13.60
2017,05,28,02,32,13.60
2017,05,28,02,33,13.50
2017,05,28,02,34,13.50
2017,05,28,02,35,13.50
2017,05,28,02,36,13.50
2017,05,28,02,37,13.50
2017,05,28,02,38,13.50
2017,05,28,02,39,13.40
2017,05,28,02,40,13.40
2017,05,28,02,41,13.40
2017,05,28,02,42,13.40
2017,05,28,02,43,13.40
2017,05,28,02,44,13.40
2017,05,28,02,45,13.40
2017,05,28,02,46,13.40
2017,05,28,02,47,13.30
2017,05,28,02,48,13.30
2017,05,28,02,49,13.30
2017,05,28,02,50,13.30
2017,05,28,02,51,13.30
2017,05,28,02,52,13.30
2017,05,28,02,53,13.30
2017,05,28,02,54,13.30
2017,05,28,02,55,13.30
2017,05,28,02,56,13.30
2017,05,28,02,57,13.30
2017,05,28,02,58,13.30
2017,05,28,02,59,13.30
2017,05,28,03,00,13.20
2017,05,28,03,01,13.20
2017,05,28,03,02,13.20
2017,05,28,03,03,13.20
2017,05,28,03,04,13.20
2017,05,28,03,05,13.20
2017,05,28,03,06,13.10
2017,05,28,03,07,13.10
2017,05,28,03,08,13.10
2017,05,28,03,09,13.10
2017,05,28,03,10,13.10
2017,05,28,03,11,13.10
2017,05,28,03,12,13.10
2017,05,28,03,13,13.10
2017,05,28,03,14,13.00
2017,05,28,03,15,13.00
2017,05,28,03,16,13.00
2017,05,28,03,17,13.00
2017,05,28,03,18,13.00
2017,05,28,03,19,12.90
2017,05,28,03,20,12.90
2017,05,28,03,21,12.90
2017,05,28,03,22,12.90
2017,05,28,03,23,12.90
2017,05,28,03,24,12.90
2017,05,28,03,25,12.90
2017,05,28,03,26,12.90
2017,05,28,03,27,12.90
2017,05,28,03,28,12.90
2017,05,28,03,29,12.90
2017,05,28,03,30,12.90
2017,05,28,03,31,12.90
2017,05,28,03,32,12.90
2017,05,28,03,33,12.90
2017,05,28,03,34,12.90
2017,05,28,03,35,12.90
2017,05,28,03,36,12.90
2017,05,28,03,37,12.90
2017,05,28,03,38,12.90
2017,05,28,03,39,12.90
2017,05,28,03,40,12.90
2017,05,28,03,41,12.90
2017,05,28,03,42,12.90
2017,05,28,03,43,12.90
2017,05,28,03,44,12.80
2017,05,28,03,45,12.80
2017,05,28,03,46,12.80
2017,05,28,03,47,12.80
2017,05,28,03,48,12.80
2017,05,28,03,49,12.80
2017,05,28,03,50,12.80
2017,05,28,03,51,12.80
2017,05,28,03,52,12.90
2017,05,28,03,53,12.90
2017,05,28,03,54,12.90
2017,05,28,03,55,12.90
2017,05,28,03,56,13.00
2017,05,28,03,57,13.00
2017,05,28,03,58,13.00
2017,05,28,03,59,13.00
2017,05,28,04,00,13.00
2017,05,28,04,01,13.00
2017,05,28,04,02,13.00
2017,05,28,04,03,13.00
2017,05,28,04,04,13.00
2017,05,28,04,05,13.00
2017,05,28,04,06,13.00
2017,05,28,04,07,12.90
2017,05,28,04,08,12.90
2017,05,28,04,09,12.90
2017,05,28,04,10,12.90
2017,05,28,04,11,12.90
2017,05,28,04,12,12.90
2017,05,28,04,13,12.80
2017,05,28,04,14,12.80
2017,05,28,04,15,12.80
2017,05,28,04,16,12.70
2017,05,28,04,17,12.70
2017,05,28,04,18,12.70
2017,05,28,04,19,12.60
2017,05,28,04,20,12.60
2017,05,28,04,21,12.50
2017,05,28,04,22,12.50
2017,05,28,04,23,12.50
2017,05,28,04,24,12.40
2017,05,28,04,25,12.40
2017,05,28,04,26,12.30
2017,05,28,04,27,12.30
2017,05,28,04,28,12.30
2017,05,28,04,29,12.20
2017,05,28,04,30,12.20
2017,05,28,04,31,12.20
2017,05,28,04,32,12.20
2017,05,28,04,33,12.20
2017,05,28,04,34,12.20
2017,05,28,04,35,12.10
2017,05,28,04,36,12.10
2017,05,28,04,37,12.10
2017,05,28,04,38,12.10
2017,05,28,04,39,12.10
2017,05,28,04,40,12.10
2017,05,28,04,41,12.00
2017,05,28,04,42,12.00
2017,05,28,04,43,12.00
2017,05,28,04,44,12.00
2017,05,28,04,45,11.90
2017,05,28,04,46,11.90
2017,05,28,04,47,11.90
2017,05,28,04,48,11.90
2017,05,28,04,49,11.90
2017,05,28,04,50,11.90
2017,05,28,04,51,11.90
2017,05,28,04,52,11.90
2017,05,28,04,53,11.90
2017,05,28,04,54,11.90
2017,05,28,04,55,11.90
2017,05,28,04,56,11.90
2017,05,28,04,57,11.90
2017,05,28,04,58,11.90
2017,05,28,04,59,11.90
2017,05,28,05,00,11.80
2017,05,28,05,01,11.80
2017,05,28,05,02,11.80
2017,05,28,05,03,11.80
2017,05,28,05,04,11.80
2017,05,28,05,05,11.80
2017,05,28,05,06,11.80
2017,05,28,05,07,11.80
2017,05,28,05,08,11.80
2017,05,28,05,09,11.80
2017,05,28,05,10,11.80
2017,05,28,05,11,11.80
2017,05,28,05,12,11.80
2017,05,28,05,13,11.80
2017,05,28,05,14,11.80
2017,05,28,05,15,11.80
2017,05,28,05,16,11.80
2017,05,28,05,17,11.80
2017,05,28,05,18,11.80
2017,05,28,05,19,11.80
2017,05,28,05,20,11.80
2017,05,28,05,21,11.80
2017,05,28,05,22,11.80
2017,05,28,05,23,11.80
2017,05,28,05,24,11.80
2017,05,28,05,25,11.90
2017,05,28,05,26,11.90
2017,05,28,05,27,11.90
2017,05,28,05,28,11.80
2017,05,28,05,29,11.90
2017,05,28,05,30,11.80
2017,05,28,05,31,11.80
2017,05,28,05,32,11.80
2017,05,28,05,33,11.80
2017,05,28,05,34,11.80
2017,05,28,05,35,11.80
2017,05,28,05,36,11.80
2017,05,28,05,37,11.80
2017,05,28,05,38,11.80
2017,05,28,05,39,11.80
2017,05,28,05,40,11.90
2017,05,28,05,41,11.90
2017,05,28,05,42,11.90
2017,05,28,05,43,11.90
2017,05,28,05,44,11.90
2017,05,28,05,45,11.90
2017,05,28,05,46,11.90
2017,05,28,05,47,11.90
2017,05,28,05,48,11.90
2017,05,28,05,49,11.90
2017,05,28,05,50,11.90
2017,05,28,05,51,11.90
2017,05,28,05,52,11.90
2017,05,28,05,53,11.90
2017,05,28,05,54,12.00
2017,05,28,05,55,12.00
2017,05,28,05,56,12.00
2017,05,28,05,57,12.00
2017,05,28,05,58,12.00
2017,05,28,05,59,12.00
2017,05,28,06,00,12.10
2017,05,28,06,01,12.10
2017,05,28,06,02,12.10
2017,05,28,06,03,12.10
2017,05,28,06,04,12.20
2017,05,28,06,05,12.20
2017,05,28,06,06,12.30
2017,05,28,06,07,12.30
2017,05,28,06,08,12.40
2017,05,28,06,09,12.40
2017,05,28,06,10,12.50
2017,05,28,06,11,12.60
2017,05,28,06,12,12.70
2017,05,28,06,13,12.70
2017,05,28,06,14,12.70
2017,05,28,06,15,12.80
2017,05,28,06,16,12.80
2017,05,28,06,17,12.80
2017,05,28,06,18,12.90
2017,05,28,06,19,12.90
2017,05,28,06,20,13.00
2017,05,28,06,21,13.00
2017,05,28,06,22,13.10
2017,05,28,06,23,13.10
2017,05,28,06,24,13.10
2017,05,28,06,25,13.20
2017,05,28,06,26,13.30
2017,05,28,06,27,13.40
2017,05,28,06,28,13.50
2017,05,28,06,29,13.50
2017,05,28,06,30,13.60
2017,05,28,06,31,13.70
2017,05,28,06,32,13.70
2017,05,28,06,33,13.80
2017,05,28,06,34,13.90
2017,05,28,06,35,13.90
2017,05,28,06,36,14.00
2017,05,28,06,37,14.00
2017,05,28,06,38,14.10
2017,05,28,06,39,14.20
2017,05,28,06,40,14.20
2017,05,28,06,41,14.20
2017,05,28,06,42,14.30
2017,05,28,06,43,14.30
2017,05,28,06,44,14.40
2017,05,28,06,45,14.40
2017,05,28,06,46,14.40
2017,05,28,06,47,14.40
2017,05,28,06,48,14.40
2017,05,28,06,49,14.50
2017,05,28,06,50,14.50
2017,05,28,06,51,14.50
2017,05,28,06,52,14.60
2017,05,28,06,53,14.60
2017,05,28,06,54,14.60
2017,05,28,06,55,14.70
2017,05,28,06,56,14.70
2017,05,28,06,57,14.70
2017,05,28,06,58,14.70
2017,05,28,06,59,14.70
2017,05,28,07,00,14.70
2017,05,28,07,01,14.80
2017,05,28,07,02,14.80
2017,05,28,07,03,14.80
2017,05,28,07,04,14.80
2017,05,28,07,05,14.90
2017,05,28,07,06,14.90
2017,05,28,07,07,14.90
2017,05,28,07,08,14.90
2017,05,28,07,09,14.90
2017,05,28,07,10,15.00
2017,05,28,07,11,15.00
2017,05,28,07,12,15.10
2017,05,28,07,13,15.10
2017,05,28,07,14,15.20
2017,05,28,07,15,15.20
2017,05,28,07,16,15.30
2017,05,28,07,17,15.30
2017,05,28,07,18,15.40
2017,05,28,07,19,15.40
2017,05,28,07,20,15.50
2017,05,28,07,21,15.60
2017,05,28,07,22,15.60
2017,05,28,07,23,15.70
2017,05,28,07,24,15.70
2017,05,28,07,25,15.70
2017,05,28,07,26,15.80
2017,05,28,07,27,15.80
2017,05,28,07,28,15.80
2017,05,28,07,29,15.80
2017,05,28,07,30,15.90
2017,05,28,07,31,15.90
2017,05,28,07,32,15.90
2017,05,28,07,33,15.90
2017,05,28,07,34,16.00
2017,05,28,07,35,16.00
2017,05,28,07,36,16.10
2017,05,28,07,37,16.10
2017,05,28,07,38,16.20
2017,05,28,07,39,16.20
2017,05,28,07,40,16.20
2017,05,28,07,41,16.30
2017,05,28,07,42,16.30
2017,05,28,07,43,16.40
2017,05,28,07,44,16.50
2017,05,28,07,45,16.60
2017,05,28,07,46,16.70
2017,05,28,07,47,16.90
2017,05,28,07,48,17.00
2017,05,28,07,49,17.10
2017,05,28,07,50,17.20
2017,05,28,07,51,17.30
2017,05,28,07,52,17.50
2017,05,28,07,53,17.60
2017,05,28,07,54,17.70
2017,05,28,07,55,17.70
2017,05,28,07,56,17.80
2017,05,28,07,57,17.80
2017,05,28,07,58,17.80
2017,05,28,07,59,17.90
2017,05,28,08,00,18.00
2017,05,28,08,01,18.00
2017,05,28,08,02,18.10
2017,05,28,08,03,18.20
2017,05,28,08,04,18.30
2017,05,28,08,05,18.50
2017,05,28,08,06,18.60
2017,05,28,08,07,18.70
2017,05,28,08,08,18.80
2017,05,28,08,09,18.90
2017,05,28,08,10,19.00
2017,05,28,08,11,19.10
2017,05,28,08,12,19.20
2017,05,28,08,13,19.30
2017,05,28,08,14,19.40
2017,05,28,08,15,19.50
2017,05,28,08,16,19.50
2017,05,28,08,17,19.60
2017,05,28,08,18,19.70
2017,05,28,08,19,19.80
2017,05,28,08,20,19.90
2017,05,28,08,21,20.00
2017,05,28,08,22,20.10
2017,05,28,08,23,20.10
2017,05,28,08,24,20.10
2017,05,28,08,25,20.20
2017,05,28,08,26,20.20
2017,05,28,08,27,20.10
2017,05,28,08,28,20.10
2017,05,28,08,29,20.00
2017,05,28,08,30,19.80
2017,05,28,08,31,19.60
2017,05,28,08,32,19.40
2017,05,28,08,33,19.20
2017,05,28,08,34,19.00
2017,05,28,08,35,18.80
2017,05,28,08,36,18.60
2017,05,28,08,37,18.50
2017,05,28,08,38,18.30
2017,05,28,08,39,18.10
2017,05,28,08,40,17.90
2017,05,28,08,41,17.70
2017,05,28,08,42,17.50
2017,05,28,08,43,17.40
2017,05,28,08,44,17.30
2017,05,28,08,45,17.30
2017,05,28,08,46,17.20
2017,05,28,08,47,17.20
2017,05,28,08,48,17.10
2017,05,28,08,49,17.10
2017,05,28,08,50,17.00
2017,05,28,08,51,17.00
2017,05,28,08,52,16.90
2017,05,28,08,53,16.90
2017,05,28,08,54,16.90
2017,05,28,08,55,16.90
2017,05,28,08,56,16.80
2017,05,28,08,57,16.80
2017,05,28,08,58,16.80
2017,05,28,08,59,16.80
2017,05,28,09,00,16.80
2017,05,28,09,01,16.80
2017,05,28,09,02,16.90
2017,05,28,09,03,17.00
2017,05,28,09,04,17.00
2017,05,28,09,05,17.10
2017,05,28,09,06,17.10
2017,05,28,09,07,17.10
2017,05,28,09,08,17.10
2017,05,28,09,09,17.10
2017,05,28,09,10,17.00
2017,05,28,09,11,16.90
2017,05,28,09,12,16.80
2017,05,28,09,13,16.80
2017,05,28,09,14,16.80
2017,05,28,09,15,16.80
2017,05,28,09,16,16.80
2017,05,28,09,17,16.80
2017,05,28,09,18,16.80
2017,05,28,09,19,16.80
2017,05,28,09,20,16.90
2017,05,28,09,21,16.90
2017,05,28,09,22,16.90
2017,05,28,09,23,17.00
2017,05,28,09,24,17.10
2017,05,28,09,25,17.20
2017,05,28,09,26,17.30
2017,05,28,09,27,17.40
2017,05,28,09,28,17.40
2017,05,28,09,29,17.50
2017,05,28,09,30,17.50
2017,05,28,09,31,17.60
2017,05,28,09,32,17.60
2017,05,28,09,33,17.60
2017,05,28,09,34,17.60
2017,05,28,09,35,17.60
2017,05,28,09,36,17.50
2017,05,28,09,37,17.60
2017,05,28,09,38,17.60
2017,05,28,09,39,17.60
2017,05,28,09,40,17.60
2017,05,28,09,41,17.60
2017,05,28,09,42,17.60
2017,05,28,09,43,17.60
2017,05,28,09,44,17.60
2017,05,28,09,45,17.60
2017,05,28,09,46,17.70
2017,05,28,09,47,17.70
2017,05,28,09,48,17.70
2017,05,28,09,49,17.60
2017,05,28,09,50,17.50
2017,05,28,09,51,17.50
2017,05,28,09,52,17.50
2017,05,28,09,53,17.50
2017,05,28,09,54,17.50
2017,05,28,09,55,17.50
2017,05,28,09,56,17.50
2017,05,28,09,57,17.50
2017,05,28,09,58,17.50
2017,05,28,09,59,17.50
2017,05,28,10,00,17.40
2017,05,28,10,01,17.40
2017,05,28,10,02,17.40
2017,05,28,10,03,17.40
2017,05,28,10,04,17.40
2017,05,28,10,05,17.50
2017,05,28,10,06,17.50
2017,05,28,10,07,17.60
2017,05,28,10,08,17.70
2017,05,28,10,09,17.80
2017,05,28,10,10,17.80
2017,05,28,10,11,17.90
2017,05,28,10,12,17.90
2017,05,28,10,13,17.90
2017,05,28,10,14,17.90
2017,05,28,10,15,18.00
2017,05,28,10,16,18.00
2017,05,28,10,17,18.10
2017,05,28,10,18,18.20
2017,05,28,10,19,18.20
2017,05,28,10,20,18.20
2017,05,28,10,21,18.20
2017,05,28,10,22,18.30
2017,05,28,10,23,18.30
2017,05,28,10,24,18.40
2017,05,28,10,25,18.40
2017,05,28,10,26,18.50
2017,05,28,10,27,18.50
2017,05,28,10,28,18.60
2017,05,28,10,29,18.60
2017,05,28,10,30,18.60
2017,05,28,10,31,18.60
2017,05,28,10,32,18.70
2017,05,28,10,33,18.80
2017,05,28,10,34,18.90
2017,05,28,10,35,19.00
2017,05,28,10,36,19.10
2017,05,28,10,37,19.10
2017,05,28,10,38,19.20
2017,05,28,10,39,19.30
2017,05,28,10,40,19.30
2017,05,28,10,41,19.40
2017,05,28,10,42,19.50
2017,05,28,10,43,19.50
2017,05,28,10,44,19.50
2017,05,28,10,45,19.40
2017,05,28,10,46,19.40
2017,05,28,10,47,19.30
2017,05,28,10,48,19.30
2017,05,28,10,49,19.40
2017,05,28,10,50,19.40
2017,05,28,10,51,19.40
2017,05,28,10,52,19.50
2017,05,28,10,53,19.50
2017,05,28,10,54,19.50
2017,05,28,10,55,19.50
2017,05,28,10,56,19.40
2017,05,28,10,57,19.20
2017,05,28,10,58,19.20
2017,05,28,10,59,19.20
2017,05,28,11,00,19.20
2017,05,28,11,01,19.10
2017,05,28,11,02,19.10
2017,05,28,11,03,19.20
2017,05,28,11,04,19.20
2017,05,28,11,05,19.20
2017,05,28,11,06,19.20
2017,05,28,11,07,19.20
2017,05,28,11,08,19.20
2017,05,28,11,09,19.20
2017,05,28,11,10,19.20
2017,05,28,11,11,19.10
2017,05,28,11,12,19.00
2017,05,28,11,13,19.00
2017,05,28,11,14,19.00
2017,05,28,11,15,19.10
2017,05,28,11,16,19.10
2017,05,28,11,17,19.20
2017,05,28,11,18,19.20
2017,05,28,11,19,19.20
2017,05,28,11,20,19.30
2017,05,28,11,21,19.30
2017,05,28,11,22,19.40
2017,05,28,11,23,19.50
2017,05,28,11,24,19.60
2017,05,28,11,25,19.60
2017,05,28,11,26,19.60
2017,05,28,11,27,19.50
2017,05,28,11,28,19.40
2017,05,28,11,29,19.40
2017,05,28,11,30,19.40
2017,05,28,11,31,19.40
2017,05,28,11,32,19.40
2017,05,28,11,33,19.50
2017,05,28,11,34,19.50
2017,05,28,11,35,19.60
2017,05,28,11,36,19.60
2017,05,28,11,37,19.70
2017,05,28,11,38,19.70
2017,05,28,11,39,19.70
2017,05,28,11,40,19.80
2017,05,28,11,41,19.80
2017,05,28,11,42,19.80
2017,05,28,11,43,19.80
2017,05,28,11,44,19.90
2017,05,28,11,45,20.00
2017,05,28,11,46,20.00
2017,05,28,11,47,20.10
2017,05,28,11,48,20.20
2017,05,28,11,49,20.20
2017,05,28,11,50,20.00
2017,05,28,11,51,19.90
2017,05,28,11,52,19.80
2017,05,28,11,53,19.70
2017,05,28,11,54,19.70
2017,05,28,11,55,19.50
2017,05,28,11,56,19.40
2017,05,28,11,57,19.20
2017,05,28,11,58,19.20
2017,05,28,11,59,19.10
2017,05,28,12,00,19.00
2017,05,28,12,01,19.10
2017,05,28,12,02,19.00
2017,05,28,12,03,18.90
2017,05,28,12,04,18.90
2017,05,28,12,05,18.80
2017,05,28,12,06,18.80
2017,05,28,12,07,18.70
2017,05,28,12,08,18.60
2017,05,28,12,09,18.70
2017,05,28,12,10,18.80
2017,05,28,12,11,18.80
2017,05,28,12,12,18.70
2017,05,28,12,13,18.70
2017,05,28,12,14,18.80
2017,05,28,12,15,18.90
2017,05,28,12,16,19.00
2017,05,28,12,17,19.00
2017,05,28,12,18,18.90
2017,05,28,12,19,18.90
2017,05,28,12,20,18.90
2017,05,28,12,21,18.90
2017,05,28,12,22,18.80
2017,05,28,12,23,18.80
2017,05,28,12,24,18.80
2017,05,28,12,25,18.90
2017,05,28,12,26,18.90
2017,05,28,12,27,18.90
2017,05,28,12,28,19.00
2017,05,28,12,29,19.10
2017,05,28,12,30,19.10
2017,05,28,12,31,19.20
2017,05,28,12,32,19.30
2017,05,28,12,33,19.30
2017,05,28,12,34,19.40
2017,05,28,12,35,19.30
2017,05,28,12,36,19.30
2017,05,28,12,37,19.40
2017,05,28,12,38,19.50
2017,05,28,12,39,19.50
2017,05,28,12,40,19.60
2017,05,28,12,41,19.60
2017,05,28,12,42,19.60
2017,05,28,12,43,19.70
2017,05,28,12,44,19.80
2017,05,28,12,45,19.90
2017,05,28,12,46,19.90
2017,05,28,12,47,19.90
2017,05,28,12,48,19.90
2017,05,28,12,49,19.90
2017,05,28,12,50,19.90
2017,05,28,12,51,20.00
2017,05,28,12,52,20.20
2017,05,28,12,53,20.30
2017,05,28,12,54,20.30
2017,05,28,12,55,20.30
2017,05,28,12,56,20.30
2017,05,28,12,57,20.40
2017,05,28,12,58,20.30
2017,05,28,12,59,20.30
2017,05,28,13,00,20.30
2017,05,28,13,01,20.20
2017,05,28,13,02,20.20
2017,05,28,13,03,20.20
2017,05,28,13,04,20.20
2017,05,28,13,05,20.10
2017,05,28,13,06,20.10
2017,05,28,13,07,20.10
2017,05,28,13,08,20.10
2017,05,28,13,09,20.20
2017,05,28,13,10,20.20
2017,05,28,13,11,20.30
2017,05,28,13,12,20.40
2017,05,28,13,13,20.50
2017,05,28,13,14,20.60
2017,05,28,13,15,20.60
2017,05,28,13,16,20.70
2017,05,28,13,17,20.70
2017,05,28,13,18,20.60
2017,05,28,13,19,20.60
2017,05,28,13,20,20.60
2017,05,28,13,21,20.70
2017,05,28,13,22,20.80
2017,05,28,13,23,20.80
2017,05,28,13,24,20.80
2017,05,28,13,25,20.90
2017,05,28,13,26,20.90
2017,05,28,13,27,21.10
2017,05,28,13,28,21.20
2017,05,28,13,29,21.30
2017,05,28,13,30,21.40
2017,05,28,13,31,21.70
2017,05,28,13,32,21.80
2017,05,28,13,33,21.90
2017,05,28,13,34,22.00
2017,05,28,13,35,22.10
2017,05,28,13,36,22.10
2017,05,28,13,37,22.10
2017,05,28,13,38,22.10
2017,05,28,13,39,22.00
2017,05,28,13,40,22.00
2017,05,28,13,41,22.00
2017,05,28,13,42,22.00
2017,05,28,13,43,21.90
2017,05,28,13,44,21.90
2017,05,28,13,45,21.80
2017,05,28,13,46,21.80
2017,05,28,13,47,21.80
2017,05,28,13,48,21.80
2017,05,28,13,49,21.90
2017,05,28,13,50,22.00
2017,05,28,13,51,21.90
2017,05,28,13,52,21.90
2017,05,28,13,53,22.00
2017,05,28,13,54,22.10
2017,05,28,13,55,22.20
2017,05,28,13,56,22.20
2017,05,28,13,57,22.30
2017,05,28,13,58,22.30
2017,05,28,13,59,22.30
2017,05,28,14,00,22.40
2017,05,28,14,01,22.40
2017,05,28,14,02,22.40
2017,05,28,14,03,22.40
2017,05,28,14,04,22.50
2017,05,28,14,05,22.60
2017,05,28,14,06,22.70
2017,05,28,14,07,22.80
2017,05,28,14,08,22.70
2017,05,28,14,09,22.60
2017,05,28,14,10,22.60
2017,05,28,14,11,22.60
2017,05,28,14,12,22.60
2017,05,28,14,13,22.60
2017,05,28,14,14,22.70
2017,05,28,14,15,22.80
2017,05,28,14,16,22.70
2017,05,28,14,17,22.70
2017,05,28,14,18,22.60
2017,05,28,14,19,22.40
2017,05,28,14,20,22.20
2017,05,28,14,21,22.00
2017,05,28,14,22,21.90
2017,05,28,14,23,21.80
2017,05,28,14,24,21.70
2017,05,28,14,25,21.70
2017,05,28,14,26,21.70
2017,05,28,14,27,21.70
2017,05,28,14,28,21.70
2017,05,28,14,29,21.70
2017,05,28,14,30,21.60
2017,05,28,14,31,21.60
2017,05,28,14,32,21.60
2017,05,28,14,33,21.50
2017,05,28,14,34,21.50
2017,05,28,14,35,21.30
2017,05,28,14,36,21.30
2017,05,28,14,37,21.30
2017,05,28,14,38,21.30
2017,05,28,14,39,21.30
2017,05,28,14,40,21.30
2017,05,28,14,41,21.30
2017,05,28,14,42,21.30
2017,05,28,14,43,21.40
2017,05,28,14,44,21.50
2017,05,28,14,45,21.50
2017,05,28,14,46,21.60
2017,05,28,14,47,21.60
2017,05,28,14,48,21.70
2017,05,28,14,49,21.70
2017,05,28,14,50,21.70
2017,05,28,14,51,21.60
2017,05,28,14,52,21.60
2017,05,28,14,53,21.50
2017,05,28,14,54,21.50
2017,05,28,14,55,21.40
2017,05,28,14,56,21.30
2017,05,28,14,57,21.30
2017,05,28,14,58,21.20
2017,05,28,14,59,21.20
2017,05,28,15,00,21.20
2017,05,28,15,01,21.20
2017,05,28,15,02,21.30
2017,05,28,15,03,21.40
2017,05,28,15,04,21.50
2017,05,28,15,05,21.60
2017,05,28,15,06,21.50
2017,05,28,15,07,21.60
2017,05,28,15,08,21.60
2017,05,28,15,09,21.60
2017,05,28,15,10,21.60
2017,05,28,15,11,21.70
2017,05,28,15,12,21.80
2017,05,28,15,13,21.90
2017,05,28,15,14,22.00
2017,05,28,15,15,22.00
2017,05,28,15,16,22.10
2017,05,28,15,17,22.20
2017,05,28,15,18,22.40
2017,05,28,15,19,22.50
2017,05,28,15,20,22.70
2017,05,28,15,21,22.70
2017,05,28,15,22,22.80
2017,05,28,15,23,22.80
2017,05,28,15,24,22.80
2017,05,28,15,25,22.80
2017,05,28,15,26,22.90
2017,05,28,15,27,23.10
2017,05,28,15,28,23.20
2017,05,28,15,29,23.30
2017,05,28,15,30,23.30
2017,05,28,15,31,23.30
2017,05,28,15,32,23.20
2017,05,28,15,33,23.20
2017,05,28,15,34,23.20
2017,05,28,15,35,23.40
2017,05,28,15,36,23.40
2017,05,28,15,37,23.30
2017,05,28,15,38,23.30
2017,05,28,15,39,23.40
2017,05,28,15,40,23.50
2017,05,28,15,41,23.60
2017,05,28,15,42,23.70
2017,05,28,15,43,23.80
2017,05,28,15,44,23.70
2017,05,28,15,45,23.60
2017,05,28,15,46,23.40
2017,05,28,15,47,23.30
2017,05,28,15,48,23.20
2017,05,28,15,49,23.20
2017,05,28,15,50,23.20
2017,05,28,15,51,23.30
2017,05,28,15,52,23.40
2017,05,28,15,53,23.50
2017,05,28,15,54,23.50
2017,05,28,15,55,23.40
2017,05,28,15,56,23.40
2017,05,28,15,57,23.40
2017,05,28,15,58,23.40
2017,05,28,15,59,23.30
2017,05,28,16,00,23.30
2017,05,28,16,01,23.30
2017,05,28,16,02,23.40
2017,05,28,16,03,23.40
2017,05,28,16,04,23.30
2017,05,28,16,05,23.30
2017,05,28,16,06,23.30
2017,05,28,16,07,23.20
2017,05,28,16,08,23.30
2017,05,28,16,09,23.30
2017,05,28,16,10,23.30
2017,05,28,16,11,23.30
2017,05,28,16,12,23.30
2017,05,28,16,13,23.30
2017,05,28,16,14,23.30
2017,05,28,16,15,23.30
2017,05,28,16,16,23.40
2017,05,28,16,17,23.40
2017,05,28,16,18,23.40
2017,05,28,16,19,23.40
2017,05,28,16,20,23.40
2017,05,28,16,21,23.40
2017,05,28,16,22,23.40
2017,05,28,16,23,23.40
2017,05,28,16,24,23.40
2017,05,28,16,25,23.50
2017,05,28,16,26,23.60
2017,05,28,16,27,23.70
2017,05,28,16,28,23.70
2017,05,28,16,29,23.80
2017,05,28,16,30,23.90
2017,05,28,16,31,23.90
2017,05,28,16,32,24.00
2017,05,28,16,33,24.00
2017,05,28,16,34,24.00
2017,05,28,16,35,24.00
2017,05,28,16,36,23.90
2017,05,28,16,37,24.00
2017,05,28,16,38,24.00
2017,05,28,16,39,24.10
2017,05,28,16,40,24.20
2017,05,28,16,41,24.20
2017,05,28,16,42,24.30
2017,05,28,16,43,24.30
2017,05,28,16,44,24.40
2017,05,28,16,45,24.50
2017,05,28,16,46,24.60
2017,05,28,16,47,24.60
2017,05,28,16,48,24.70
2017,05,28,16,49,24.70
2017,05,28,16,50,24.70
2017,05,28,16,51,24.70
2017,05,28,16,52,24.70
2017,05,28,16,53,24.70
2017,05,28,16,54,24.80
2017,05,28,16,55,24.70
2017,05,28,16,56,24.80
2017,05,28,16,57,24.80
2017,05,28,16,58,24.90
2017,05,28,16,59,24.90
2017,05,28,17,00,25.00
2017,05,28,17,01,25.10
2017,05,28,17,02,25.20
2017,05,28,17,03,25.20
2017,05,28,17,04,25.20
2017,05,28,17,05,25.20
2017,05,28,17,06,25.30
2017,05,28,17,07,25.40
2017,05,28,17,08,25.40
2017,05,28,17,09,25.40
2017,05,28,17,10,25.40
2017,05,28,17,11,25.30
2017,05,28,17,12,25.30
2017,05,28,17,13,25.30
2017,05,28,17,14,25.30
2017,05,28,17,15,25.30
2017,05,28,17,16,25.30
2017,05,28,17,17,25.40
2017,05,28,17,18,25.50
2017,05,28,17,19,25.60